Stanton, MN

12:06 PM CDT on March 23, 2017 (GMT -0500)
Stanton

Weather History for KSYN - March, 2014

Change the Weather History Date:

Sunday, March 30, 2014

  Actual Average (KLVN) Record (KLVN)
Temperature  
Mean Temperature 48 °F -  
Max Temperature 58 °F 48 °F 81 °F (1968)
Min Temperature 37 °F 29 °F -7 °F (1969)
Degree Days  
Heating Degree Days 18    
Moisture  
Dew Point 36 °F    
Average Humidity 65    
Maximum Humidity 75    
Minimum Humidity 52    
Precipitation  
Precipitation 0.00 in - - ()
Sea Level Pressure  
Sea Level Pressure 29.87 in    
Wind  
Wind Speed 14 mph (SSE)    
Max Wind Speed 22 mph    
Max Gust Speed 31 mph    
Visibility 10 miles    
Events      
Averages and records for this station are not official NWS values.
T = Trace of Precipitation, MM = Missing Value Source: NWS Daily Summary

Daily Weather History Graph

Daily Weather History Graph

Search for Another Location

Airport or City:

Trip Planner

Search our weather history database for the weather conditions in past years. The results will help you decide how hot, cold, wet, or windy it might be!

Date:

Astronomy

Mar. 30, 2014 Rise Set
Actual Time 6:56 AM CDT 7:37 PM CDT
Civil Twilight 6:27 AM CDT 8:06 PM CDT
Nautical Twilight 5:52 AM CDT 8:41 PM CDT
Astronomical Twilight 5:16 AM CDT 9:17 PM CDT
Moon 6:43 AM CDT (3/30) 7:51 PM CDT (3/30)
Length of Visible Light 13h 38m
Length of Day
12h 40m
Waning Crescent, 0% of the Moon is Illuminated
Mar 30
Waning Crescent
Mar 30
New
Apr 7
First Quarter
Apr 15
Full
Apr 22
Last Quarter

Hourly Weather History & Observations

Time (CDT) Temp. Windchill Dew Point Humidity Pressure Visibility Wind Dir Wind Speed Gust Speed Precip Events Conditions
12:12 AM 37.4 °F 30.3 °F 30.0 °F 75% 30.07 in 10.0 mi South 10.4 mph 17.3 mph N/A   Clear
12:32 AM 38.1 °F 30.7 °F 30.2 °F 73% 30.05 in 10.0 mi SSE 11.5 mph - N/A   Clear
12:52 AM 38.8 °F 30.8 °F 30.4 °F 72% 30.05 in 10.0 mi SSE 13.8 mph - N/A   Clear
1:12 AM 38.8 °F 31.2 °F 30.7 °F 73% 30.03 in 10.0 mi SSE 12.7 mph - N/A   Clear
1:32 AM 38.7 °F 31.4 °F 30.9 °F 74% 30.02 in 10.0 mi SSE 11.5 mph - N/A   Clear
1:52 AM 38.8 °F 30.4 °F 30.9 °F 73% 30.02 in 10.0 mi South 15.0 mph 18.4 mph N/A   Clear
2:12 AM 38.5 °F 30.3 °F 30.9 °F 74% 30.02 in 10.0 mi South 13.8 mph 19.6 mph N/A   Clear
2:32 AM 38.5 °F 29.9 °F 30.9 °F 74% 30.00 in 10.0 mi SSE 15.0 mph - N/A   Clear
2:52 AM 39.2 °F 30.2 °F 30.9 °F 72% 29.99 in 10.0 mi South 17.3 mph 21.9 mph N/A   Clear
3:12 AM 39.2 °F 29.6 °F 30.7 °F 72% 29.98 in 10.0 mi SSE 19.6 mph 24.2 mph N/A   Scattered Clouds
3:32 AM 39.2 °F 30.5 °F 30.7 °F 72% 29.97 in 10.0 mi South 16.1 mph 26.5 mph N/A   Clear
3:52 AM 39.2 °F 29.3 °F 30.6 °F 71% 29.95 in 10.0 mi South 20.7 mph 25.3 mph N/A   Clear
4:12 AM 39.6 °F 29.5 °F 30.6 °F 70% 29.94 in 10.0 mi South 21.9 mph 26.5 mph N/A   Clear
4:32 AM 39.6 °F 30.0 °F 30.7 °F 71% 29.93 in 10.0 mi South 19.6 mph 26.5 mph N/A   Clear
4:52 AM 39.4 °F 30.7 °F 30.7 °F 71% 29.92 in 10.0 mi South 16.1 mph 25.3 mph N/A   Clear
5:12 AM 39.6 °F 29.7 °F 30.7 °F 71% 29.91 in 10.0 mi South 20.7 mph 28.8 mph N/A   Clear
5:32 AM 39.4 °F 29.2 °F 30.7 °F 71% 29.90 in 10.0 mi South 21.9 mph 28.8 mph N/A   Clear
5:52 AM 39.9 °F 30.5 °F 30.7 °F 70% 29.89 in 10.0 mi South 19.6 mph 28.8 mph N/A   Scattered Clouds
6:12 AM 39.6 °F 30.0 °F 30.9 °F 71% 29.89 in 10.0 mi South 19.6 mph 27.6 mph N/A   Clear
6:32 AM 39.7 °F 29.7 °F 30.9 °F 71% 29.89 in 10.0 mi South 21.9 mph 25.3 mph N/A   Clear
6:52 AM 39.4 °F 29.2 °F 31.1 °F 72% 29.88 in 10.0 mi South 21.9 mph 31.1 mph N/A   Clear
7:12 AM 39.9 °F 30.2 °F 31.1 °F 71% 29.88 in 10.0 mi South 20.7 mph 29.9 mph N/A   Clear
7:32 AM 40.3 °F 33.0 °F 31.1 °F 70% 29.90 in 10.0 mi South 12.7 mph 23.0 mph N/A   Clear
7:52 AM 39.9 °F 32.9 °F 31.5 °F 72% 29.92 in 10.0 mi South 11.5 mph 18.4 mph N/A   Scattered Clouds
8:12 AM 40.6 °F 33.8 °F 31.5 °F 70% 29.93 in 10.0 mi South 11.5 mph 19.6 mph N/A   Clear
8:32 AM 40.5 °F 34.6 °F 31.8 °F 71% 29.93 in 10.0 mi South 9.2 mph - N/A   Clear
8:52 AM 41.0 °F 33.5 °F 32.0 °F 70% 29.92 in 10.0 mi South 13.8 mph 17.3 mph N/A   Clear
9:12 AM 41.9 °F 35.0 °F 32.0 °F 68% 29.92 in 10.0 mi South 12.7 mph 19.6 mph N/A   Clear
9:32 AM 42.1 °F 34.9 °F 32.2 °F 68% 29.91 in 10.0 mi South 13.8 mph 17.3 mph N/A   Clear
9:52 AM 42.4 °F 34.7 °F 32.7 °F 68% 29.90 in 10.0 mi South 16.1 mph 23.0 mph N/A   Clear
10:12 AM 43.5 °F 36.4 °F 33.3 °F 67% 29.90 in 10.0 mi South 15.0 mph 21.9 mph N/A   Clear
10:32 AM 44.4 °F 37.9 °F 34.2 °F 67% 29.89 in 10.0 mi South 13.8 mph 23.0 mph N/A   Clear
10:52 AM 45.5 °F 38.3 °F 34.9 °F 66% 29.89 in 10.0 mi South 17.3 mph 23.0 mph N/A   Clear
11:12 AM 46.4 °F 40.4 °F 35.8 °F 67% 29.88 in 10.0 mi South 13.8 mph 24.2 mph N/A   Clear
11:32 AM 47.3 °F - 36.5 °F 66% 29.88 in 10.0 mi South 12.7 mph 20.7 mph N/A   Clear
11:52 AM 48.4 °F - 37.2 °F 65% 29.88 in 10.0 mi South 11.5 mph 20.7 mph N/A   Clear
12:12 PM 49.3 °F - 37.8 °F 65% 29.88 in 10.0 mi South 11.5 mph 21.9 mph N/A   Clear
12:32 PM 50.4 °F - 39.4 °F 66% 29.86 in 10.0 mi South 10.4 mph - N/A   Clear
12:52 PM 51.8 °F - 39.9 °F 64% 29.86 in 10.0 mi South 10.4 mph 19.6 mph N/A   Clear
1:12 PM 53.4 °F - 41.5 °F 64% 29.86 in 7.0 mi South 10.4 mph 16.1 mph N/A   Clear
1:32 PM 54.7 °F - 42.1 °F 62% 29.86 in 10.0 mi South 6.9 mph - N/A   Clear
1:52 PM 55.2 °F - 41.5 °F 60% 29.85 in 7.0 mi South 10.4 mph 21.9 mph N/A   Clear
2:12 PM 56.3 °F - 43.2 °F 61% 29.84 in 10.0 mi SSW 13.8 mph 17.3 mph N/A   Clear
2:32 PM 57.6 °F - 42.1 °F 56% 29.84 in 10.0 mi South 12.7 mph 17.3 mph N/A   Clear
2:52 PM 58.1 °F - 43.0 °F 57% 29.83 in 7.0 mi SSW 10.4 mph 18.4 mph N/A   Clear
3:12 PM 58.5 °F - 43.0 °F 56% 29.83 in 10.0 mi South 8.1 mph - N/A   Clear
3:32 PM 58.8 °F - 43.9 °F 58% 29.82 in 10.0 mi South 12.7 mph - N/A   Clear
3:52 PM 58.1 °F - 43.7 °F 59% 29.82 in 10.0 mi South 9.2 mph - N/A   Clear
4:12 PM 58.1 °F - 43.5 °F 58% 29.81 in 10.0 mi SSE 9.2 mph - N/A   Clear
4:32 PM 58.3 °F - 44.6 °F 60% 29.81 in 10.0 mi SSE 13.8 mph - N/A   Clear
4:52 PM 58.3 °F - 44.8 °F 61% 29.81 in 7.0 mi SSE 11.5 mph - N/A   Clear
5:11 PM 57.9 °F - 44.8 °F 62% 29.80 in 7.0 mi SSE 12.7 mph - N/A   Clear
5:32 PM 56.8 °F - 43.7 °F 61% 29.80 in 10.0 mi SSE 9.2 mph - N/A   Clear
5:52 PM 57.0 °F - 43.3 °F 60% 29.81 in 10.0 mi SSE 8.1 mph - N/A   Clear
6:11 PM 55.9 °F - 42.8 °F 61% 29.80 in 10.0 mi SE 9.2 mph - N/A   Clear
6:32 PM 55.4 °F - 42.3 °F 61% 29.79 in 10.0 mi ESE 8.1 mph - N/A   Clear
6:52 PM 54.7 °F - 41.9 °F 62% 29.78 in 10.0 mi ESE 9.2 mph - N/A   Clear
7:12 PM 54.0 °F - 41.2 °F 62% 29.78 in 10.0 mi ESE 11.5 mph 17.3 mph N/A   Clear
7:32 PM 53.8 °F - 41.0 °F 62% 29.78 in 10.0 mi ESE 12.7 mph 18.4 mph N/A   Clear
7:52 PM 53.8 °F - 40.6 °F 61% 29.78 in 10.0 mi ESE 12.7 mph 17.3 mph N/A   Clear
8:12 PM 53.6 °F - 40.3 °F 61% 29.78 in 10.0 mi ESE 11.5 mph - N/A   Clear
8:32 PM 53.6 °F - 39.7 °F 59% 29.77 in 10.0 mi ESE 11.5 mph 18.4 mph N/A   Clear
8:52 PM 52.7 °F - 39.4 °F 61% 29.77 in 10.0 mi ESE 9.2 mph - N/A   Clear
9:12 PM 52.2 °F - 39.0 °F 61% 29.78 in 10.0 mi ESE 11.5 mph - N/A   Clear
9:32 PM 51.8 °F - 38.7 °F 61% 29.78 in 10.0 mi SE 9.2 mph - N/A   Clear
9:52 PM 50.9 °F - 38.1 °F 62% 29.77 in 10.0 mi SE 11.5 mph 16.1 mph N/A   Clear
10:12 PM 50.9 °F - 37.4 °F 60% 29.77 in 10.0 mi SSE 11.5 mph 17.3 mph N/A   Clear
10:32 PM 51.1 °F - 36.5 °F 57% 29.77 in 10.0 mi SSE 11.5 mph 18.4 mph N/A   Clear
10:52 PM 51.8 °F - 35.6 °F 54% 29.76 in 10.0 mi SSE 16.1 mph 23.0 mph N/A   Clear
11:12 PM 52.0 °F - 34.9 °F 52% 29.76 in 10.0 mi SSE 15.0 mph 23.0 mph N/A   Clear
11:32 PM 51.8 °F - 34.9 °F 53% 29.75 in 10.0 mi SSE 15.0 mph 21.9 mph N/A   Clear
11:52 PM 51.4 °F - 34.7 °F 53% 29.75 in 10.0 mi SSE 16.1 mph 20.7 mph N/A   Clear